STARLINK-30037

decayed
NORAD ID: 55712 Int'l Des: 2023-026 Owner: SPXS Country: US Constellation: starlink
LEOCIRCULAR
グループ

STARLINK-30037について

説明を読み込み中...

高度履歴

Altitude vs Time

uPlot chart will show altitude changes over time

軌道要素

1 55712U 23026T 24206.04700609 .07794037 88065-5 10252-2 0 9994
2 55712 42.9837 67.6476 0030305 195.9721 164.0216 16.32895436 81833
Epoch: Jul 24, 2024 • Age: 10130 hours

現在のステータス

Position data unavailable
打ち上げ日 Feb 27, 2023
運用期間 2.5 years
落下予定日 Jul 24, 2024
タイプ internet

技術仕様

分類 Payload
質量 730.00 kg
乾燥質量 700.00 kg
総質量 730.00 kg
長さ 0.30 m
直径 4.10 m
スパン 29.00 m
形状 Box + pan
製造者 SPXS
バスタイプ Starlink V2M
フェーズステータス Unknown Transfer Status
所有者/国 SPXS/US

大規模コンステレーション

Loading constellations...